User: anonymous   Login
Location: Unspecified
(0.0000°N, 0.0000°E)
Time: 15:14:03
(UTC+00:00)
Language:

ELECTRON R/B - Orbit

View from above orbital plane
View from above orbital plane
View from above satellite
View from above satellite

Ground track
Ground track

The orbit data is extracted from the following two-line orbital elements,

1 43166U 18010D   18055.68432309 +.00032884 -96643-6 +25841-3 0  9997
2 43166 082.9178 105.2544 0166565 095.1376 266.8902 15.54956047005372
Epoch (UTC): 24 February 2018 16:25:25
Eccentricity: 0.0166565
inclination: 82.9178°
perigee height: 289 km
apogee height: 515 km
right ascension of ascending node: 105.2544°
argument of perigee: 95.1376°
revolutions per day: 15.54956047
mean anomaly at epoch: 266.8902°
orbit number at epoch: 537

The dashed part of the orbit path shows where the satellite is in the earth's shadow,  

DLR